Regional Weather Roundup
Issued by NWS

Home | Current Version | Previous Version | Graphics & Text | Print | Product List | Glossary On
Versions: 1 2 3 4 5 6 7 8 9 10 11 12 13 14 15 16 17 18 19 20 21 22 23 24 25 26 27 28 29 30 31 32 33 34 35 36 37 38 39 40 41 42 43 44 45 46 47 48 49 50
463
ASUS43 KLOT 101112
RWRIL

ILLINOIS REGIONAL WEATHER ROUNDUP
NATIONAL WEATHER SERVICE CHICAGO/ROMEOVILLE IL
500 AM CST SAT DEC 10 2016

NOTE: "FAIR" INDICATES FEW OR NO CLOUDS BELOW 12,000 FEET WITH NO
SIGNIFICANT WEATHER AND/OR OBSTRUCTIONS TO VISIBILITY.

* THESE STATIONS ARE NOT UNDER NWS QUALITY CONTROL. THEY ALSO MAY NOT
  REPORT WEATHER SUCH AS PRECIPITATION OR FOG.

ILZ001-002-007-009-015-016-024-101200-
NORTHWEST ILLINOIS

CITY           SKY/WX    TMP DP  RH WIND       PRES   REMARKS
MOLINE         CLOUDY    21  14  74 S3        30.53F
STERLING*      CLOUDY    19  15  84 W5        30.53F WCI  12
SAVANNA*       CLOUDY    19  15  82 SW5       30.52F WCI  13
$$

ILZ003-004-008-010-011-017-018-101200-
NORTH CENTRAL ILLINOIS

CITY           SKY/WX    TMP DP  RH WIND       PRES   REMARKS
ROCKFORD       CLOUDY    18  13  80 W7        30.52S WCI   9
FREEPORT*      CLOUDY    17  13  86 W6        30.52S WCI   9
ROCHELLE*      CLOUDY    18  14  84 W7        30.52S WCI   9
DE KALB*       CLOUDY    18  13  82 W9        30.50F WCI   6
$$

ILZ005-006-012>014-019>023-101200-
NORTHEAST ILLINOIS

CITY           SKY/WX    TMP DP  RH WIND       PRES   REMARKS
CHICAGO-OHARE  CLOUDY    19  12  74 W9        30.50R WCI   8
CHICAGO-MIDWAY CLOUDY    21  12  68 W9        30.51S WCI  11
AURORA         CLOUDY    19  14  81 W8        30.52S WCI   9
LANSING*       CLOUDY    21  16  83 W6        30.52S WCI  13
JOLIET*        CLOUDY    22  17  81 W5        30.53S WCI  15
WAUKEGAN       CLOUDY    18  13  80 W6        30.48R WCI  10
DUPAGE AIRPORT CLOUDY    18  11  74 W8        30.50S WCI   8
KANKAKEE*      CLOUDY    22  16  76 W8        30.54S WCI  13
WHEELING       CLOUDY    19  12  74 W8        30.51S WCI   9
MORRIS*        CLOUDY    21  16  81 W7        30.53R WCI  12
ROMEOVILLE*    CLOUDY    19  17  90 W6        30.52S WCI  11
NORTHERLY ISL    N/A     21  14  74 W9          N/A  WCI  11
$$

LMZ740>746-101200-
SOUTHERN LAKE MICHIGAN

STATION/POSITION SKY/WX   TEMP    WIND        PRES    VSBY  WAVE
                          AIR SEA DIR/SP/G                  HT/PER
                          (F)     (DEG/KT/KT) (MB)    (MI)  (FT/S)
BURNHAM HARBOR             21     240/  9/ 11   N/A
CALUMET HARBOR             20     240/  5/ 11 1032.4R
BURNS HARBOR               22     230/ 12/ 15 1033.5R
$$

ILZ025>027-034>036-040-047-049-050-058-095>099-101200-
WEST-CENTRAL ILLINOIS

CITY           SKY/WX    TMP DP  RH WIND       PRES   REMARKS
QUINCY         CLOUDY    23  14  68 SE3       30.53F
GALESBURG*     CLOUDY    21  16  81 CALM      30.53F
MACOMB*        CLOUDY    22  17  82 CALM      30.56S
JACKSONVILLE*  CLOUDY    23  16  74 CALM      30.57R
PITTSFIELD*    CLOUDY    24  19  81 CALM      30.56F
$$

ILZ028>032-037-038-041>044-048-051>054-059>061-101200-
CENTRAL ILLINOIS

CITY           SKY/WX    TMP DP  RH WIND       PRES   REMARKS
PONTIAC        CLOUDY    22  17  78 W7        30.55S WCI  14
BLOOMINGTON    CLOUDY    21  15  78 W6        30.54S WCI  13
DECATUR        CLOUDY    22  15  75 W5        30.56S WCI  16
PEORIA         CLOUDY    22  14  71 W3        30.55F
LACON*         CLOUDY    21  14  74 CALM      30.54F
LINCOLN*       CLOUDY    23  17  78 CALM      30.56S
SPRINGFIELD    CLOUDY    24  17  74 W3        30.57S
TAYLORVILLE    CLOUDY    23  18  81 CALM      30.57R
$$

ILZ033-039-045-046-055>057-062-063-101200-
EAST-CENTRAL ILLINOIS

CITY           SKY/WX    TMP DP  RH WIND       PRES   REMARKS
CHAMPAIGN      CLOUDY    22  15  75 W6        30.55S WCI  14
RANTOUL*       CLOUDY    24  18  78 W6        30.55R WCI  17
MATTOON        CLOUDY    22  16  78 SW3       30.55S
PARIS*         CLOUDY    22  18  84 W3        30.57S
$$

ILZ079-100>102-101200-
SOUTHWEST ILLINOIS

CITY           SKY/WX    TMP DP  RH WIND       PRES   REMARKS
ALTON          CLOUDY    24  18  79 CALM      30.58S
BELLEVILLE     CLOUDY    24  20  85 CALM      30.57S
CAHOKIA*       CLOUDY    26  17  68 CALM      30.58S
SPARTA*        CLOUDY    24  18  78 CALM      30.58F
$$

ILZ064>066-069>071-074>076-080>082-084>086-088>090-092>094-101200-
SOUTH-CENTRAL ILLINOIS

CITY           SKY/WX    TMP DP  RH WIND       PRES   REMARKS
CARBONDALE     CLOUDY    22  20  92 CALM      30.59S
CAIRO*         CLEAR     16  15  95 CALM      30.61S
EFFINGHAM*     CLOUDY    24  20  84 SW3       30.60R
MARION         CLOUDY    25  23  93 CALM      30.60S
CENTRALIA*     CLOUDY    24  20  83 CALM      30.58S
SALEM*         CLOUDY    25  19  76 S3        30.58S
METROPOLIS*    CLEAR     16  14  90 CALM      30.62R
$$

ILZ067-068-072-073-078-083-087-091-101200-
SOUTHEAST ILLINOIS

CITY           SKY/WX    TMP DP  RH WIND       PRES   REMARKS
LAWRENCEVILLE  CLOUDY    22  18  85 W3        30.60R
FLORA*         CLOUDY    25  19  79 SW3       30.60R
FAIRFIELD*     CLOUDY    24  20  87 CALM      30.59S
HARRISBURG*    CLOUDY    24  20  87 CALM      30.61R
ROBINSON*      CLOUDY    22  18  86 SW3       30.60R
CARMI*         CLOUDY    23  20  85 CALM      30.60R
$$

ABBREVIATIONS USED IN REMARKS
   TC - TEMPERATURE IN CELSIUS
  WCI - WIND CHILL INDEX
   HX - HEAT INDEX
  VSB - VISIBILITY
$$





USA.gov is the U.S. government's official web portal to all federal, state and local government web resources and services.